FWI845 KBOS-TNCM

Flight info

Callsign FWI845
Flight time N/A
Altitude 35000
Route BOS090008 BRUWN BORQE Y578 KAYYT/M085F350 DASER BALTN MEGGG L456 HANCY/N0500F350 L456 THANK SLUGO A638 PJM
Aircraft A35K/H-SDE2E3GHIJ3J4J5LM1ORWXY/LB1D1

Departure

Time N/A
Airport Boston Logan International Airport (KBOS)

Arrival

Time 2026-04-30 20:13
Airport Princess Juliana International Airport (TNCM)
Time Latitude Longitude Altitude Speed Heading
2026-04-30 17:39 36.77626 -67.57507 35007 ft 493 kts 180°
2026-04-30 17:42 36.43330 -67.57542 35005 ft 493 kts 180°
2026-04-30 17:43 36.26181 -67.57559 35008 ft 493 kts 180°
2026-04-30 17:44 36.05612 -67.57579 35009 ft 493 kts 180°
2026-04-30 17:47 35.74770 -67.57610 35010 ft 493 kts 180°
2026-04-30 17:48 35.50738 -67.57633 35010 ft 493 kts 180°
2026-04-30 17:50 35.23338 -67.57660 35010 ft 493 kts 180°
2026-04-30 17:52 35.02757 -67.57680 35008 ft 493 kts 180°
2026-04-30 17:54 34.71916 -67.57710 35012 ft 493 kts 180°
2026-04-30 17:56 34.44462 -67.57736 35008 ft 493 kts 180°
2026-04-30 17:58 34.23941 -67.57756 35009 ft 493 kts 180°
2026-04-30 18:00 33.96470 -67.57906 35008 ft 493 kts 180°
2026-04-30 18:01 33.80472 -67.58044 35008 ft 493 kts 180°
2026-04-30 18:02 33.59923 -67.58214 35009 ft 493 kts 180°
2026-04-30 18:04 33.39372 -67.58384 35007 ft 493 kts 180°
2026-04-30 18:06 33.11917 -67.58610 35012 ft 493 kts 180°
2026-04-30 18:08 32.87953 -67.58806 35007 ft 493 kts 180°
2026-04-30 18:10 32.60507 -67.59029 35008 ft 493 kts 180°
2026-04-30 18:11 32.36525 -67.59223 35003 ft 493 kts 180°
2026-04-30 18:13 32.19365 -67.59361 35007 ft 493 kts 180°
2026-04-30 18:14 32.02262 -67.59498 35011 ft 493 kts 180°
2026-04-30 18:15 31.81681 -67.59662 35010 ft 493 kts 180°
2026-04-30 18:16 31.67953 -67.59771 35006 ft 493 kts 180°
2026-04-30 18:17 31.61089 -67.59825 35007 ft 493 kts 180°
2026-04-30 18:18 31.50840 -67.59907 35008 ft 493 kts 180°
2026-04-30 18:18 31.43971 -67.59961 35009 ft 493 kts 180°
2026-04-30 18:19 31.37146 -67.60015 35011 ft 493 kts 180°
2026-04-30 18:19 31.30276 -67.60069 35009 ft 493 kts 180°
2026-04-30 18:20 31.23405 -67.60123 35009 ft 493 kts 180°
2026-04-30 18:20 31.16544 -67.60177 35007 ft 493 kts 180°
2026-04-30 18:21 31.09732 -67.60230 35012 ft 493 kts 180°
2026-04-30 18:21 31.02863 -67.60284 35011 ft 493 kts 180°
2026-04-30 18:22 30.95999 -67.60338 35006 ft 493 kts 180°
2026-04-30 18:22 30.85714 -67.60418 35007 ft 493 kts 180°
2026-04-30 18:23 30.78852 -67.60472 35007 ft 493 kts 180°
2026-04-30 18:23 30.71999 -67.60525 35007 ft 493 kts 180°
2026-04-30 18:24 30.61702 -67.60423 35004 ft 493 kts 178°
2026-04-30 18:25 30.54852 -67.60123 35010 ft 493 kts 178°
2026-04-30 18:25 30.44570 -67.59721 35010 ft 493 kts 178°
2026-04-30 18:26 30.34284 -67.59375 35010 ft 493 kts 178°
2026-04-30 18:27 30.23992 -67.59033 35011 ft 493 kts 178°
2026-04-30 18:28 30.13760 -67.58691 35012 ft 493 kts 178°
2026-04-30 18:28 30.03454 -67.58346 35010 ft 493 kts 178°
2026-04-30 18:29 29.89742 -67.57889 35010 ft 493 kts 178°
2026-04-30 18:30 29.76023 -67.57434 35012 ft 493 kts 178°
2026-04-30 18:31 29.65730 -67.57093 35007 ft 493 kts 178°
2026-04-30 18:32 29.55482 -67.56754 35007 ft 493 kts 178°
2026-04-30 18:33 29.45185 -67.56414 35009 ft 493 kts 178°
2026-04-30 18:33 29.34894 -67.56075 35010 ft 493 kts 178°
2026-04-30 18:34 29.24594 -67.55736 35011 ft 493 kts 178°
2026-04-30 18:35 29.17792 -67.55513 35007 ft 493 kts 178°
2026-04-30 18:35 29.10927 -67.55288 35009 ft 493 kts 178°
2026-04-30 18:36 29.00645 -67.54952 35013 ft 493 kts 178°
2026-04-30 18:37 28.90349 -67.54615 35010 ft 493 kts 178°
2026-04-30 18:37 28.83493 -67.54392 35008 ft 493 kts 178°
2026-04-30 18:38 28.76638 -67.54169 35012 ft 493 kts 179°
2026-04-30 18:38 28.69773 -67.53946 35009 ft 493 kts 179°
2026-04-30 18:39 28.62946 -67.53724 35011 ft 493 kts 179°
2026-04-30 18:39 28.56105 -67.53502 35011 ft 493 kts 179°
2026-04-30 18:40 28.49237 -67.53280 35009 ft 493 kts 179°
2026-04-30 18:40 28.42373 -67.53058 35008 ft 493 kts 179°
2026-04-30 18:41 28.35520 -67.52621 35006 ft 493 kts 171°
2026-04-30 18:41 28.28770 -67.51238 35012 ft 493 kts 169°
2026-04-30 18:42 28.22041 -67.49702 35010 ft 493 kts 168°
2026-04-30 18:42 28.11981 -67.47397 35012 ft 493 kts 169°
2026-04-30 18:45 27.74928 -67.39056 35011 ft 493 kts 169°
2026-04-30 18:46 27.68198 -67.37547 35009 ft 493 kts 169°
2026-04-30 18:46 27.61457 -67.36038 35011 ft 493 kts 169°
2026-04-30 18:47 27.55858 -67.34786 35013 ft 493 kts 169°
2026-04-30 18:47 27.49130 -67.33284 35006 ft 493 kts 169°
2026-04-30 18:48 27.41298 -67.31537 35004 ft 493 kts 169°
2026-04-30 18:48 27.34562 -67.30036 35011 ft 493 kts 169°
2026-04-30 18:49 27.28924 -67.28782 35013 ft 493 kts 169°
2026-04-30 18:49 27.22192 -67.27286 35013 ft 493 kts 169°
2026-04-30 18:50 27.14364 -67.25549 35013 ft 493 kts 169°
2026-04-30 18:50 27.08761 -67.24307 35004 ft 493 kts 169°
2026-04-30 18:51 27.02014 -67.22814 35009 ft 493 kts 169°
2026-04-30 18:51 26.95289 -67.21326 35013 ft 493 kts 169°
2026-04-30 18:52 26.88560 -67.19840 35010 ft 493 kts 169°
2026-04-30 18:52 26.81846 -67.18358 35008 ft 493 kts 169°
2026-04-30 18:53 26.75116 -67.16876 35010 ft 493 kts 169°
2026-04-30 18:53 26.68377 -67.15393 35009 ft 493 kts 169°
2026-04-30 18:54 26.61634 -67.13911 35007 ft 493 kts 169°
2026-04-30 18:54 26.54900 -67.12433 35011 ft 493 kts 169°
2026-04-30 18:55 26.48169 -67.10957 35012 ft 493 kts 169°
2026-04-30 18:55 26.38056 -67.08743 35005 ft 493 kts 169°
2026-04-30 18:56 26.27980 -67.06541 35012 ft 493 kts 169°
2026-04-30 18:57 26.17876 -67.04337 35012 ft 493 kts 169°
2026-04-30 18:57 26.11133 -67.02868 35010 ft 493 kts 169°
2026-04-30 18:58 26.01025 -67.00669 35010 ft 493 kts 169°
2026-04-30 18:59 25.90929 -66.98477 35011 ft 493 kts 169°
2026-04-30 19:00 25.77442 -66.95554 35011 ft 493 kts 169°
2026-04-30 19:01 25.63971 -66.92642 35008 ft 493 kts 169°
2026-04-30 19:02 25.53878 -66.90464 35012 ft 493 kts 169°
2026-04-30 19:03 25.40424 -66.87568 35011 ft 493 kts 169°
2026-04-30 19:04 25.26974 -66.84678 35004 ft 493 kts 169°
2026-04-30 19:05 25.13462 -66.81782 35012 ft 493 kts 169°
2026-04-30 19:06 24.99946 -66.78891 35004 ft 493 kts 169°
2026-04-30 19:06 24.89837 -66.76733 35009 ft 493 kts 169°
2026-04-30 19:07 24.79729 -66.74579 35005 ft 493 kts 169°
2026-04-30 19:08 24.66253 -66.71713 35008 ft 493 kts 169°
2026-04-30 19:09 24.56177 -66.69574 35010 ft 493 kts 169°
2026-04-30 19:09 24.49436 -66.68145 35011 ft 493 kts 169°
2026-04-30 19:10 24.35955 -66.65292 35004 ft 493 kts 169°
2026-04-30 19:11 24.25840 -66.63156 35013 ft 493 kts 169°
2026-04-30 19:12 24.19096 -66.61733 35004 ft 493 kts 169°
2026-04-30 19:12 24.12353 -66.60312 35004 ft 493 kts 169°
2026-04-30 19:13 23.98867 -66.57475 35011 ft 493 kts 169°
2026-04-30 19:14 23.92168 -66.56068 35013 ft 493 kts 169°
2026-04-30 19:14 23.85407 -66.54649 35006 ft 493 kts 169°
2026-04-30 19:15 23.78666 -66.53236 35006 ft 493 kts 169°
2026-04-30 19:15 23.68540 -66.51117 35010 ft 493 kts 169°
2026-04-30 19:16 23.61858 -66.49720 35011 ft 493 kts 169°
2026-04-30 19:17 23.51731 -66.47606 35007 ft 493 kts 169°
2026-04-30 19:17 23.41617 -66.45497 35011 ft 493 kts 169°
2026-04-30 19:18 23.31509 -66.43394 35010 ft 493 kts 169°
2026-04-30 19:19 23.24758 -66.41990 35009 ft 493 kts 169°
2026-04-30 19:19 23.14672 -66.39897 35011 ft 493 kts 169°
2026-04-30 19:20 23.07912 -66.38495 35010 ft 493 kts 169°
2026-04-30 19:21 22.97806 -66.36403 35011 ft 493 kts 169°
2026-04-30 19:22 22.84295 -66.33614 35012 ft 493 kts 169°
2026-04-30 19:23 22.64101 -66.29447 35013 ft 493 kts 169°
2026-04-30 19:24 22.53976 -66.27364 35006 ft 493 kts 169°
2026-04-30 19:25 22.37109 -66.23902 35010 ft 493 kts 169°
2026-04-30 19:26 22.23623 -66.21140 35012 ft 493 kts 169°
2026-04-30 19:27 22.13554 -66.19081 35011 ft 493 kts 169°
2026-04-30 19:28 22.03416 -66.17011 35013 ft 493 kts 169°
2026-04-30 19:29 21.89962 -66.14270 35008 ft 493 kts 169°
2026-04-30 19:30 21.76491 -66.11528 33275 ft 496 kts 169°
2026-04-30 19:30 21.69708 -66.10151 31465 ft 500 kts 169°
2026-04-30 19:31 21.62831 -66.08756 30170 ft 501 kts 169°
2026-04-30 19:31 21.59417 -66.08064 30019 ft 503 kts 169°
2026-04-30 19:31 21.52514 -66.06665 29998 ft 505 kts 169°
2026-04-30 19:32 21.45748 -66.04700 29999 ft 505 kts 154°
2026-04-30 19:32 21.40793 -66.01302 29997 ft 504 kts 144°
2026-04-30 19:33 21.35196 -65.96853 29999 ft 505 kts 143°
2026-04-30 19:33 21.28669 -65.91564 30000 ft 505 kts 143°
2026-04-30 19:34 21.23962 -65.87795 30000 ft 505 kts 143°
2026-04-30 19:35 21.15487 -65.81067 30000 ft 505 kts 143°
2026-04-30 19:35 21.09839 -65.76594 30000 ft 505 kts 143°
2026-04-30 19:36 21.04193 -65.72126 30000 ft 505 kts 143°
2026-04-30 19:36 20.95700 -65.65410 30000 ft 505 kts 143°
2026-04-30 19:37 20.90072 -65.60964 30000 ft 505 kts 143°
2026-04-30 19:37 20.84423 -65.56506 30000 ft 505 kts 143°
2026-04-30 19:38 20.78818 -65.52088 30000 ft 505 kts 143°
2026-04-30 19:38 20.73164 -65.47634 30000 ft 505 kts 143°
2026-04-30 19:39 20.67542 -65.43211 29999 ft 505 kts 144°
2026-04-30 19:39 20.61882 -65.38762 30000 ft 505 kts 144°
2026-04-30 19:40 20.56228 -65.34322 30000 ft 505 kts 144°
2026-04-30 19:40 20.50572 -65.29883 30000 ft 505 kts 144°
2026-04-30 19:41 20.44907 -65.25443 30000 ft 505 kts 144°
2026-04-30 19:41 20.39242 -65.21006 30000 ft 505 kts 144°
2026-04-30 19:42 20.33574 -65.16572 30000 ft 505 kts 144°
2026-04-30 19:42 20.27912 -65.12145 30001 ft 505 kts 144°
2026-04-30 19:43 20.22247 -65.07721 30000 ft 505 kts 144°
2026-04-30 19:44 20.13754 -65.01096 29999 ft 505 kts 144°
2026-04-30 19:44 20.08075 -64.96671 30001 ft 505 kts 144°
2026-04-30 19:44 20.05252 -64.94473 29888 ft 504 kts 144°
2026-04-30 19:45 20.02421 -64.92269 29170 ft 503 kts 144°
2026-04-30 19:45 19.99613 -64.90086 28596 ft 497 kts 144°
2026-04-30 19:45 19.96883 -64.87963 28285 ft 486 kts 144°
2026-04-30 19:45 19.94153 -64.85840 27967 ft 475 kts 144°
2026-04-30 19:46 19.91516 -64.83791 27672 ft 465 kts 144°
2026-04-30 19:46 19.88962 -64.81807 27387 ft 455 kts 144°
2026-04-30 19:46 19.86406 -64.79822 27087 ft 445 kts 144°
2026-04-30 19:46 19.83960 -64.77925 26831 ft 436 kts 144°
2026-04-30 19:47 19.81537 -64.76044 26579 ft 427 kts 144°
2026-04-30 19:47 19.79928 -64.74797 26367 ft 422 kts 144°
2026-04-30 19:47 19.76803 -64.72374 25854 ft 417 kts 144°
2026-04-30 19:47 19.74476 -64.70571 25453 ft 413 kts 144°
2026-04-30 19:48 19.72164 -64.68781 25100 ft 408 kts 144°
2026-04-30 19:48 19.69883 -64.67014 24997 ft 406 kts 144°
2026-04-30 19:48 19.67595 -64.65244 24996 ft 407 kts 144°
2026-04-30 19:48 19.65308 -64.63474 24997 ft 407 kts 144°
2026-04-30 19:49 19.63020 -64.61705 25001 ft 407 kts 144°
2026-04-30 19:49 19.58440 -64.58165 24998 ft 407 kts 144°
2026-04-30 19:49 19.56149 -64.56395 24998 ft 407 kts 144°
2026-04-30 19:50 19.53857 -64.54625 24999 ft 407 kts 144°
2026-04-30 19:50 19.51570 -64.52860 24997 ft 407 kts 144°
2026-04-30 19:50 19.49279 -64.51092 25000 ft 407 kts 144°
2026-04-30 19:50 19.46984 -64.49321 25000 ft 407 kts 144°
2026-04-30 19:51 19.44700 -64.47560 25003 ft 407 kts 144°
2026-04-30 19:51 19.42399 -64.45786 25000 ft 407 kts 144°
2026-04-30 19:51 19.40132 -64.44039 24997 ft 407 kts 144°
2026-04-30 19:51 19.37834 -64.42269 25000 ft 407 kts 144°
2026-04-30 19:52 19.35546 -64.40507 24999 ft 407 kts 144°
2026-04-30 19:52 19.33255 -64.38744 25001 ft 407 kts 144°
2026-04-30 19:52 19.30960 -64.36977 25000 ft 407 kts 144°
2026-04-30 19:52 19.28675 -64.35220 25001 ft 407 kts 144°
2026-04-30 19:53 19.26381 -64.33456 25001 ft 407 kts 144°
2026-04-30 19:53 19.24088 -64.31693 25003 ft 407 kts 144°
2026-04-30 19:53 19.21795 -64.29931 25004 ft 407 kts 144°
2026-04-30 19:53 19.19499 -64.28167 24997 ft 407 kts 144°
2026-04-30 19:54 19.17209 -64.26409 25001 ft 407 kts 144°
2026-04-30 19:54 19.14915 -64.24649 25001 ft 407 kts 144°
2026-04-30 19:54 19.12624 -64.22890 25002 ft 407 kts 144°
2026-04-30 19:54 19.10327 -64.21129 24999 ft 407 kts 144°
2026-04-30 19:55 19.08039 -64.19374 24997 ft 407 kts 144°
2026-04-30 19:55 19.05734 -64.17607 25002 ft 407 kts 144°
2026-04-30 19:55 19.03442 -64.15851 24998 ft 407 kts 144°
2026-04-30 19:55 19.01182 -64.14120 25003 ft 407 kts 144°
2026-04-30 19:56 18.98892 -64.12366 25002 ft 407 kts 144°
2026-04-30 19:56 18.96596 -64.10609 24794 ft 407 kts 144°
2026-04-30 19:56 18.94296 -64.08849 24180 ft 409 kts 144°
2026-04-30 19:56 18.92006 -64.07097 23842 ft 403 kts 144°
2026-04-30 19:57 18.89745 -64.05368 23423 ft 400 kts 144°
2026-04-30 19:57 18.87496 -64.03649 22979 ft 397 kts 144°
2026-04-30 19:57 18.85271 -64.01948 22534 ft 394 kts 144°
2026-04-30 19:57 18.83060 -64.00259 22095 ft 391 kts 144°
2026-04-30 19:58 18.80862 -63.98580 21652 ft 388 kts 144°
2026-04-30 19:58 18.78683 -63.96917 21201 ft 386 kts 144°
2026-04-30 19:58 18.76514 -63.95262 20756 ft 383 kts 144°
2026-04-30 19:58 18.74362 -63.93620 20316 ft 381 kts 144°
2026-04-30 19:59 18.72263 -63.92019 19859 ft 378 kts 144°
2026-04-30 19:59 18.70132 -63.90394 19413 ft 376 kts 144°
2026-04-30 19:59 18.65920 -63.87184 18520 ft 371 kts 144°
2026-04-30 20:00 18.63817 -63.85582 17757 ft 376 kts 144°
2026-04-30 20:00 18.61669 -63.83947 16902 ft 385 kts 144°
2026-04-30 20:00 18.59510 -63.82304 16055 ft 391 kts 144°
2026-04-30 20:00 18.57266 -63.80597 15258 ft 395 kts 144°
2026-04-30 20:01 18.52847 -63.77236 14005 ft 392 kts 144°
2026-04-30 20:01 18.50618 -63.75541 13374 ft 389 kts 144°
2026-04-30 20:01 18.48454 -63.73897 12756 ft 387 kts 144°
2026-04-30 20:02 18.44127 -63.70610 11573 ft 380 kts 144°
2026-04-30 20:02 18.41989 -63.68986 10822 ft 380 kts 144°
2026-04-30 20:03 18.38130 -63.65210 9387 ft 379 kts 126°
2026-04-30 20:03 18.36617 -63.62951 8707 ft 376 kts 124°
2026-04-30 20:03 18.35155 -63.60697 8187 ft 368 kts 124°
2026-04-30 20:03 18.33746 -63.58509 8015 ft 352 kts 124°
2026-04-30 20:04 18.32414 -63.56435 7933 ft 334 kts 124°
2026-04-30 20:04 18.31142 -63.54451 7670 ft 323 kts 124°
2026-04-30 20:04 18.29904 -63.52517 7397 ft 313 kts 124°
2026-04-30 20:05 18.27520 -63.48792 6651 ft 303 kts 124°
2026-04-30 20:05 18.26345 -63.46957 6238 ft 300 kts 124°
2026-04-30 20:05 18.24059 -63.43385 5643 ft 293 kts 124°
2026-04-30 20:06 18.22888 -63.41619 5165 ft 297 kts 128°
2026-04-30 20:06 18.21308 -63.40218 5025 ft 301 kts 150°
2026-04-30 20:06 18.19441 -63.39199 4997 ft 303 kts 154°
2026-04-30 20:06 18.17570 -63.38212 4994 ft 297 kts 153°
2026-04-30 20:07 18.15779 -63.37252 4990 ft 279 kts 153°
2026-04-30 20:07 18.14112 -63.36354 4989 ft 262 kts 153°
2026-04-30 20:07 18.11060 -63.34705 4986 ft 230 kts 153°
2026-04-30 20:08 18.09686 -63.33961 4989 ft 218 kts 153°
2026-04-30 20:08 18.08349 -63.33238 4843 ft 213 kts 153°
2026-04-30 20:08 18.07050 -63.32535 4666 ft 204 kts 153°
2026-04-30 20:08 18.05823 -63.31870 4523 ft 195 kts 153°
2026-04-30 20:09 18.04627 -63.31223 4296 ft 191 kts 153°
2026-04-30 20:09 18.03466 -63.30582 4045 ft 188 kts 151°
2026-04-30 20:09 18.01834 -63.28542 3385 ft 190 kts 106°
2026-04-30 20:10 18.01983 -63.25831 2572 ft 182 kts 79°
2026-04-30 20:10 18.02165 -63.24545 2325 ft 174 kts 82°
2026-04-30 20:10 18.02330 -63.23323 2098 ft 166 kts 81°
2026-04-30 20:11 18.02672 -63.20918 1664 ft 167 kts 81°
2026-04-30 20:11 18.02841 -63.19720 1430 ft 163 kts 81°
2026-04-30 20:11 18.03006 -63.18561 1216 ft 157 kts 81°
2026-04-30 20:12 18.03324 -63.16315 808 ft 155 kts 81°
2026-04-30 20:12 18.03482 -63.15195 611 ft 155 kts 81°
2026-04-30 20:12 18.03640 -63.14087 395 ft 152 kts 81°
2026-04-30 20:13 18.03788 -63.13039 207 ft 144 kts 81°
2026-04-30 20:13 18.03935 -63.12006 31 ft 142 kts 81°
2026-04-30 20:13 18.04063 -63.11064 28 ft 92 kts 81°
2026-04-30 20:13 18.04105 -63.10802 26 ft 0 kts 80°
2026-04-30 20:14 18.04106 -63.10798 26 ft 2 kts 80°
2026-04-30 20:14 18.04110 -63.10776 26 ft 4 kts 75°
2026-04-30 20:14 18.04131 -63.10756 27 ft 5 kts 30°
2026-04-30 20:14 18.04153 -63.10751 27 ft 0 kts 353°
2026-04-30 20:17 18.04161 -63.10753 27 ft 2 kts 347°
2026-04-30 20:17 18.04175 -63.10763 27 ft 2 kts 322°
2026-04-30 20:17 18.04186 -63.10783 27 ft 5 kts 290°
2026-04-30 20:17 18.04190 -63.10844 27 ft 11 kts 271°
2026-04-30 20:18 18.04183 -63.10936 27 ft 13 kts 263°
2026-04-30 20:18 18.04169 -63.11040 27 ft 16 kts 262°
2026-04-30 20:18 18.04154 -63.11150 27 ft 16 kts 262°
2026-04-30 20:18 18.04139 -63.11247 27 ft 12 kts 261°
2026-04-30 20:19 18.04185 -63.11298 27 ft 11 kts 340°
2026-04-30 20:19 18.04225 -63.11305 27 ft 7 kts
2026-04-30 20:19 18.04289 -63.11290 27 ft 1 kts
2026-04-30 20:19 18.04310 -63.11291 27 ft 5 kts 354°
2026-04-30 20:20 18.04321 -63.11293 27 ft 0 kts 352°